• Em Portugal
  • Lista de países
  • Para 7 dias
  • Temperatura da água
  • Mapas de satélite
  • Mapa do tempo
  • Widgets de tempo
  • user-avatar
    Iniciar Sessão

    Previsão horária em Elbasan

    Hoje, 23 Fevereiro, Sexta-feira

    Tempo Temperatura Precipitação Vento Pressão Humidade
    00:00 +7°C° 0 mm 2 m/s 730 mmHg 84%
    01:00 +7°C° 0 mm 2 m/s 729 mmHg 84%
    02:00 +7°C° 0 mm 3 m/s 729 mmHg 85%
    03:00 +7°C° 0 mm 3 m/s 729 mmHg 85%
    04:00 +7°C° 0 mm 3 m/s 729 mmHg 85%
    05:00 +7°C° 0 mm 3 m/s 729 mmHg 85%
    06:00 +7°C° 0 mm 3 m/s 729 mmHg 85%
    07:00 +7°C° 0 mm 3 m/s 729 mmHg 84%
    08:00 +8°C° 0 mm 3 m/s 729 mmHg 81%
    09:00 +9°C° 0 mm 3 m/s 730 mmHg 78%
    10:00 +11°C° 0 mm 3 m/s 730 mmHg 74%
    11:00 +12°C° 0 mm 3 m/s 730 mmHg 72%
    12:00 +12°C° 0 mm 3 m/s 729 mmHg 69%
    13:00 +13°C° 0 mm 3 m/s 729 mmHg 66%
    14:00 +13°C° 0 mm 3 m/s 729 mmHg 68%
    15:00 +12°C° 0 mm 3 m/s 729 mmHg 69%
    16:00 +12°C° 0 mm 3 m/s 729 mmHg 71%
    17:00 +11°C° 0 mm 4 m/s 729 mmHg 74%
    18:00 +8°C° 0 mm 4 m/s 729 mmHg 77%
    19:00 +7°C° 0 mm 4 m/s 729 mmHg 81%
    20:00 +7°C° 0 mm 4 m/s 729 mmHg 81%
    21:00 +7°C° 0 mm 4 m/s 728 mmHg 82%
    22:00 +7°C° 0 mm 4 m/s 728 mmHg 82%
    23:00 +6°C° 0 mm 4 m/s 728 mmHg 82%

    Amanhã, 24 Fevereiro, Sábado

    Tempo Temperatura Precipitação Vento Pressão Humidade
    00:00 +6°C° 0 mm 4 m/s 728 mmHg 82%
    01:00 +6°C° 0 mm 4 m/s 728 mmHg 83%
    02:00 +6°C° 0 mm 4 m/s 727 mmHg 82%
    03:00 +6°C° 0 mm 4 m/s 727 mmHg 82%
    04:00 +6°C° 0 mm 4 m/s 727 mmHg 82%
    05:00 +7°C° 0 mm 3 m/s 727 mmHg 82%
    06:00 +7°C° 0 mm 3 m/s 727 mmHg 82%
    07:00 +7°C° 0 mm 3 m/s 727 mmHg 82%
    08:00 +8°C° 0 mm 2 m/s 727 mmHg 80%
    09:00 +9°C° 0 mm 2 m/s 728 mmHg 78%
    10:00 +10°C° 0 mm 2 m/s 728 mmHg 76%
    11:00 +10°C° 0,2 mm 2 m/s 728 mmHg 76%
    12:00 +10°C° 0,2 mm 2 m/s 728 mmHg 75%
    13:00 +12°C° 0,2 mm 1 m/s 728 mmHg 75%
    14:00 +11°C° 0,3 mm 1 m/s 728 mmHg 76%
    15:00 +11°C° 0,3 mm 1 m/s 728 mmHg 76%
    16:00 +11°C° 0,3 mm 1 m/s 728 mmHg 77%
    17:00 +11°C° 0,2 mm 1 m/s 728 mmHg 80%
    18:00 +10°C° 0,2 mm 1 m/s 728 mmHg 83%
    19:00 +9°C° 0,2 mm 1 m/s 728 mmHg 87%
    20:00 +9°C° 0,3 mm 1 m/s 729 mmHg 87%
    21:00 +9°C° 0,3 mm 1 m/s 729 mmHg 88%
    22:00 +9°C° 0,3 mm 1 m/s 729 mmHg 88%
    23:00 +9°C° 0,5 mm 1 m/s 729 mmHg 89%

    Depois de amanhã, 25 Fevereiro, Domingo

    Tempo Temperatura Precipitação Vento Pressão Humidade
    00:00 +8°C° 0,5 mm 1 m/s 729 mmHg 89%
    01:00 +7°C° 0,5 mm 2 m/s 730 mmHg 90%
    02:00 +7°C° 0,8 mm 2 m/s 729 mmHg 90%
    03:00 +7°C° 0,8 mm 2 m/s 729 mmHg 90%
    04:00 +7°C° 0,8 mm 2 m/s 729 mmHg 90%
    05:00 +6°C° 0,7 mm 2 m/s 729 mmHg 90%
    06:00 +6°C° 0,7 mm 2 m/s 730 mmHg 90%
    07:00 +6°C° 0,7 mm 2 m/s 730 mmHg 89%
    08:00 +6°C° 0,4 mm 2 m/s 730 mmHg 86%
    09:00 +7°C° 0,4 mm 2 m/s 730 mmHg 83%
    10:00 +7°C° 0,4 mm 3 m/s 731 mmHg 80%
    11:00 +8°C° 0,1 mm 2 m/s 730 mmHg 78%
    12:00 +8°C° 0,1 mm 2 m/s 730 mmHg 77%
    13:00 +9°C° 0,1 mm 2 m/s 730 mmHg 75%
    14:00 +9°C° 0,2 mm 2 m/s 729 mmHg 76%
    15:00 +9°C° 0,2 mm 2 m/s 729 mmHg 77%
    16:00 +8°C° 0,2 mm 2 m/s 729 mmHg 78%
    17:00 +8°C° 0,5 mm 2 m/s 729 mmHg 80%
    18:00 +7°C° 0,5 mm 2 m/s 729 mmHg 82%
    19:00 +6°C° 0,5 mm 2 m/s 729 mmHg 84%
    20:00 +5°C° 0,4 mm 3 m/s 729 mmHg 84%
    21:00 +4°C° 0,4 mm 3 m/s 729 mmHg 84%
    22:00 +4°C° 0,4 mm 3 m/s 728 mmHg 83%
    23:00 +3°C° 0,5 mm 4 m/s 728 mmHg 83%

    26 Fevereiro, Segunda-feira

    Tempo Temperatura Precipitação Vento Pressão Humidade
    00:00 +3°C° 0,5 mm 4 m/s 727 mmHg 83%
    01:00 +3°C° 0,5 mm 4 m/s 726 mmHg 83%
    02:00 +1°C° 1,2 mm 4 m/s 725 mmHg 84%
    03:00 +1°C° 1,2 mm 5 m/s 724 mmHg 84%
    04:00 +1°C° 1,2 mm 5 m/s 723 mmHg 84%
    05:00 +1°C° 0,6 mm 5 m/s 723 mmHg 83%
    06:00 +2°C° 0,6 mm 5 m/s 722 mmHg 81%
    07:00 +2°C° 0,6 mm 5 m/s 722 mmHg 79%
    08:00 +2°C° 1,2 mm 5 m/s 722 mmHg 81%
    09:00 +2°C° 1,2 mm 5 m/s 722 mmHg 82%
    10:00 +2°C° 1,2 mm 6 m/s 723 mmHg 83%
    11:00 +3°C° 0,1 mm 5 m/s 722 mmHg 82%
    12:00 +5°C° 0,1 mm 5 m/s 722 mmHg 80%
    13:00 +6°C° 0,1 mm 4 m/s 722 mmHg 78%
    14:00 +6°C° 0,3 mm 4 m/s 722 mmHg 79%
    15:00 +7°C° 0,3 mm 3 m/s 722 mmHg 80%
    16:00 +5°C° 0,3 mm 3 m/s 722 mmHg 80%
    17:00 +6°C° 0,7 mm 2 m/s 723 mmHg 84%
    18:00 +5°C° 0,7 mm 2 m/s 723 mmHg 88%
    19:00 +5°C° 0,7 mm 1 m/s 724 mmHg 91%
    20:00 +5°C° 0,2 mm 1 m/s 724 mmHg 92%
    21:00 +4°C° 0,2 mm 2 m/s 724 mmHg 93%
    22:00 +4°C° 0,2 mm 2 m/s 725 mmHg 94%
    23:00 +4°C° 0,3 mm 2 m/s 725 mmHg 94%

    27 Fevereiro, Terça-feira

    Tempo Temperatura Precipitação Vento Pressão Humidade
    00:00 +4°C° 0,3 mm 2 m/s 725 mmHg 94%
    01:00 +4°C° 0,3 mm 2 m/s 725 mmHg 94%
    02:00 +4°C° 0,5 mm 2 m/s 725 mmHg 94%
    03:00 +3°C° 0,5 mm 2 m/s 725 mmHg 94%
    04:00 +3°C° 0,5 mm 2 m/s 725 mmHg 93%
    05:00 +3°C° 0,6 mm 2 m/s 725 mmHg 93%
    06:00 +3°C° 0,6 mm 2 m/s 725 mmHg 93%
    07:00 +3°C° 0,6 mm 2 m/s 725 mmHg 93%
    08:00 +2°C° 0,7 mm 3 m/s 726 mmHg 92%
    09:00 +3°C° 0,7 mm 3 m/s 726 mmHg 91%
    10:00 +3°C° 0,7 mm 4 m/s 726 mmHg 90%
    11:00 +3°C° 0,6 mm 4 m/s 727 mmHg 88%
    12:00 +4°C° 0,6 mm 4 m/s 727 mmHg 87%
    13:00 +4°C° 0,6 mm 4 m/s 727 mmHg 86%
    14:00 +4°C° 0,3 mm 4 m/s 727 mmHg 85%
    15:00 +3°C° 0,3 mm 4 m/s 727 mmHg 85%
    16:00 +3°C° 0,3 mm 3 m/s 728 mmHg 84%
    17:00 +2°C° 0,1 mm 3 m/s 728 mmHg 86%
    18:00 +3°C° 0,1 mm 2 m/s 729 mmHg 89%
    19:00 +3°C° 0,1 mm 1 m/s 729 mmHg 91%
    20:00 +2°C° 0 mm 1 m/s 730 mmHg 91%
    21:00 +2°C° 0 mm 1 m/s 730 mmHg 91%
    22:00 -1°C° 0 mm 2 m/s 730 mmHg 91%
    23:00 -1°C° 0 mm 2 m/s 730 mmHg 89%

    28 Fevereiro, Quarta-feira

    Tempo Temperatura Precipitação Vento Pressão Humidade
    00:00 -2°C° 0 mm 2 m/s 730 mmHg 87%
    01:00 -3°C° 0 mm 2 m/s 730 mmHg 86%
    02:00 -3°C° 0 mm 2 m/s 730 mmHg 84%
    03:00 -3°C° 0 mm 2 m/s 730 mmHg 81%
    04:00 -1°C° 0 mm 1 m/s 730 mmHg 79%
    05:00 -2°C° 0 mm 2 m/s 730 mmHg 77%
    06:00 -2°C° 0 mm 2 m/s 730 mmHg 75%
    07:00 -2°C° 0 mm 2 m/s 730 mmHg 72%
    08:00 +2°C° 0 mm 1 m/s 730 mmHg 70%
    09:00 +4°C° 0 mm 1 m/s 730 mmHg 68%
    10:00 +6°C° 0 mm 1 m/s 730 mmHg 66%
    11:00 +7°C° 0 mm 1 m/s 730 mmHg 66%
    12:00 +7°C° 0 mm 1 m/s 730 mmHg 65%
    13:00 +8°C° 0 mm 1 m/s 730 mmHg 65%
    14:00 +8°C° 0 mm 1 m/s 730 mmHg 64%
    15:00 +6°C° 0 mm 2 m/s 730 mmHg 64%
    16:00 +6°C° 0 mm 2 m/s 730 mmHg 63%
    17:00 +5°C° 0,1 mm 2 m/s 730 mmHg 69%
    18:00 +4°C° 0,1 mm 2 m/s 731 mmHg 75%
    19:00 +3°C° 0,1 mm 2 m/s 731 mmHg 81%
    20:00 +3°C° 0,2 mm 2 m/s 732 mmHg 82%
    21:00 +3°C° 0,2 mm 2 m/s 732 mmHg 84%
    22:00 +4°C° 0,2 mm 1 m/s 733 mmHg 85%
    23:00 +3°C° 0,1 mm 2 m/s 733 mmHg 85%
    Mostrar mais